Indian Springs, NV

11:41 PM PDT on October 19, 2019 (GMT -0700)
Indian Springs Air Force Auxiliary

Weather History for KINS - September, 2019

Change the Weather History Date:

Saturday, September 21, 2019

  Actual Average (WUND) Record (WUND)
Temperature  
Mean Temperature 66 °F -  
Max Temperature 81 °F - - (-1)
Min Temperature 51 °F - - (-1)
Growing Degree Days 16 (Base 50)    
Moisture  
Dew Point 20 °F    
Average Humidity 18    
Maximum Humidity 26    
Minimum Humidity 11    
Precipitation  
Precipitation 0.00 in - - ()
Sea Level Pressure  
Sea Level Pressure 29.90 in    
Wind  
Wind Speed 1 mph ()    
Max Wind Speed 6 mph    
Max Gust Speed -    
Visibility 10.0 miles    
Events      
Averages and records for this station are not official NWS values.
T = Trace of Precipitation, MM = Missing Value Source: Averaged Metar Reports

Daily Weather History Graph

Daily Weather History Graph

Search for Another Location

Airport or City:

Astronomy

Sep. 21, 2019 Rise Set
Actual Time 6:29 AM PDT 6:41 PM PDT
Civil Twilight 6:03 AM PDT 7:07 PM PDT
Nautical Twilight 5:33 AM PDT 7:37 PM PDT
Astronomical Twilight 5:03 AM PDT 8:07 PM PDT
Moon 11:33 PM PDT (9/21) 1:29 PM PDT (9/21)
Length of Visible Light 13h 03m
Length of Day
12h 11m
Waning Gibbous, 53% of the Moon is Illuminated
Sep 21
Waning Gibbous
Sep 21
Last Quarter
Sep 28
New
Oct 5
First Quarter
Oct 13
Full

Hourly Weather History & Observations

Time (PDT) Temp. Dew Point Humidity Pressure Visibility Wind Dir Wind Speed Gust Speed Precip Events Conditions
12:58 AM 58.1 °F 19.4 °F 22% 29.87 in 10.0 mi Calm Calm - N/A   Clear
1:58 AM 55.4 °F 20.1 °F 25% 29.88 in 10.0 mi Calm Calm - N/A   Clear
2:58 AM 54.1 °F 17.1 °F 23% 29.89 in 10.0 mi NE 3.5 mph - N/A   Clear
3:58 AM 55.2 °F 17.1 °F 22% 29.88 in 10.0 mi Calm Calm - N/A   Clear
4:58 AM 52.5 °F 16.7 °F 24% 29.90 in 10.0 mi Calm Calm - N/A   Clear
5:58 AM 51.3 °F 17.6 °F 26% 29.92 in 10.0 mi West 3.5 mph - N/A   Clear
6:58 AM 51.6 °F 16.9 °F 25% 29.94 in 10.0 mi Calm Calm - N/A   Clear
7:58 AM 57.4 °F 18.9 °F 22% 29.96 in 10.0 mi Calm Calm - N/A   Clear
8:58 AM 65.1 °F 21.7 °F 19% 29.98 in 10.0 mi Calm Calm - N/A   Clear
9:58 AM 68.2 °F 23.0 °F 18% 29.97 in 10.0 mi Calm Calm - N/A   Clear
10:58 AM 71.8 °F 23.2 °F 16% 29.96 in 10.0 mi Calm Calm - N/A   Clear
11:58 AM 75.2 °F 22.6 °F 14% 29.94 in 10.0 mi Calm Calm - N/A   Clear
12:58 PM 77.2 °F 22.5 °F 13% 29.92 in 10.0 mi Calm Calm - N/A   Clear
1:58 PM 79.0 °F 22.1 °F 12% 29.90 in 10.0 mi Calm Calm - N/A   Clear
2:58 PM 80.8 °F 21.4 °F 11% 29.88 in 10.0 mi West 4.6 mph - N/A   Clear
3:58 PM 80.4 °F 21.0 °F 11% 29.86 in 10.0 mi Calm Calm - N/A   Clear
4:58 PM 80.2 °F 21.0 °F 11% 29.86 in 10.0 mi Calm Calm - N/A   Clear
5:58 PM 80.1 °F 20.8 °F 11% 29.86 in 10.0 mi WSW 4.6 mph - N/A   Clear
6:58 PM 77.7 °F 21.0 °F 12% 29.87 in 10.0 mi Calm Calm - N/A   Clear
7:58 PM 73.0 °F 24.1 °F 16% 29.87 in 10.0 mi Calm Calm - N/A   Clear
8:58 PM 69.1 °F 21.0 °F 16% 29.88 in 10.0 mi WNW 5.8 mph - N/A   Clear
9:58 PM 68.4 °F 20.5 °F 16% 29.91 in 10.0 mi Calm Calm - N/A   Clear
10:58 PM 65.8 °F 19.8 °F 17% 29.90 in 10.0 mi Calm Calm - N/A   Clear
11:58 PM 63.7 °F 20.7 °F 19% 29.90 in 10.0 mi Calm Calm - N/A   Clear